Location: Bucquoy
(50.1391°N, 2.7097°E)
Time: 09:11:50
(UTC+00:00)

Cosmos 1867 - Pass Details

Date: 06 May 2021
Orbit: 773 x 802 km, 65.0° (Epoch: 21 June)

Event Time Altitude Azimuth Distance (km) Brightness Sun altitude
Exits shadow 00:52:12 40° 155° (SSE) 1,164 4.0 -21.7°
Maximum altitude 00:53:24 46° 120° (ESE) 1,059 4.1 -21.7°
Drops below altitude 10° 00:58:36 10° 49° (NE) 2,380 6.9 -21.4°
Sets 01:01:07 0° 43° (NE) 3,317 7.9 -21.3°
